EN

Hourly Weather Lagoa da Canoa

Today, 4 August, Wednesday

Time Temperature Precipitation Wind Pressure Humidity
00:00 +20°C° 0 mm 1 mps 739 mmHg 95%
01:00 +20°C° 0 mm 1 mps 739 mmHg 96%
02:00 +20°C° 0.1 mm 1 mps 739 mmHg 95%
03:00 +20°C° 0.1 mm 1 mps 739 mmHg 95%
04:00 +20°C° 0.1 mm 1 mps 739 mmHg 95%
05:00 +20°C° 0 mm 1 mps 739 mmHg 95%
06:00 +20°C° 0 mm 1 mps 739 mmHg 95%
07:00 +20°C° 0 mm 1 mps 739 mmHg 94%
08:00 +20°C° 0.2 mm 2 mps 740 mmHg 89%
09:00 +22°C° 0.2 mm 3 mps 740 mmHg 84%
10:00 +23°C° 0.2 mm 4 mps 741 mmHg 79%
11:00 +25°C° 0.4 mm 5 mps 740 mmHg 76%
12:00 +25°C° 0.4 mm 5 mps 740 mmHg 73%
13:00 +26°C° 0.4 mm 5 mps 740 mmHg 69%
14:00 +26°C° 0.2 mm 5 mps 739 mmHg 69%
15:00 +26°C° 0.2 mm 5 mps 739 mmHg 68%
16:00 +26°C° 0.2 mm 6 mps 739 mmHg 67%
17:00 +23°C° 0 mm 5 mps 739 mmHg 73%
18:00 +22°C° 0 mm 4 mps 739 mmHg 79%
19:00 +21°C° 0 mm 3 mps 739 mmHg 86%
20:00 +20°C° 0 mm 3 mps 740 mmHg 88%
21:00 +19°C° 0 mm 2 mps 740 mmHg 90%
22:00 +19°C° 0 mm 2 mps 741 mmHg 92%
23:00 +20°C° 0 mm 1 mps 740 mmHg 92%

Tomorrow, 5 August, Thursday

Time Temperature Precipitation Wind Pressure Humidity
00:00 +20°C° 0 mm 1 mps 740 mmHg 92%
01:00 +20°C° 0 mm 1 mps 740 mmHg 92%
02:00 +20°C° 0 mm 1 mps 740 mmHg 92%
03:00 +19°C° 0 mm 1 mps 740 mmHg 93%
04:00 +19°C° 0 mm 1 mps 739 mmHg 93%
05:00 +19°C° 0 mm 1 mps 740 mmHg 93%
06:00 +17°C° 0 mm 0 mps 740 mmHg 93%
07:00 +17°C° 0 mm 0 mps 740 mmHg 93%
08:00 +20°C° 0 mm 2 mps 741 mmHg 85%
09:00 +22°C° 0 mm 3 mps 741 mmHg 76%
10:00 +25°C° 0 mm 4 mps 742 mmHg 67%
11:00 +26°C° 0 mm 4 mps 741 mmHg 64%
12:00 +27°C° 0 mm 4 mps 741 mmHg 60%
13:00 +27°C° 0 mm 5 mps 740 mmHg 57%
14:00 +27°C° 0 mm 5 mps 740 mmHg 58%
15:00 +27°C° 0 mm 5 mps 740 mmHg 60%
16:00 +27°C° 0 mm 5 mps 739 mmHg 61%
17:00 +25°C° 0 mm 4 mps 739 mmHg 69%
18:00 +22°C° 0 mm 3 mps 740 mmHg 78%
19:00 +21°C° 0 mm 3 mps 740 mmHg 86%
20:00 +20°C° 0 mm 2 mps 740 mmHg 88%
21:00 +20°C° 0 mm 2 mps 741 mmHg 91%
22:00 +19°C° 0 mm 2 mps 741 mmHg 93%
23:00 +20°C° 0 mm 1 mps 741 mmHg 93%

Day after tomorrow, 6 August, Friday

Time Temperature Precipitation Wind Pressure Humidity
00:00 +20°C° 0 mm 1 mps 741 mmHg 93%
01:00 +20°C° 0 mm 1 mps 740 mmHg 93%
02:00 +19°C° 0 mm 1 mps 740 mmHg 93%
03:00 +17°C° 0 mm 0 mps 740 mmHg 93%
04:00 +17°C° 0 mm 0 mps 740 mmHg 93%
05:00 +17°C° 0 mm 0 mps 740 mmHg 93%
06:00 +17°C° 0 mm 0 mps 740 mmHg 94%
07:00 +19°C° 0 mm 1 mps 740 mmHg 94%
08:00 +21°C° 0.1 mm 1 mps 741 mmHg 89%
09:00 +21°C° 0.1 mm 2 mps 741 mmHg 83%
10:00 +24°C° 0.1 mm 2 mps 742 mmHg 78%
11:00 +25°C° 0.4 mm 3 mps 741 mmHg 76%
12:00 +25°C° 0.4 mm 3 mps 741 mmHg 75%
13:00 +26°C° 0.4 mm 4 mps 741 mmHg 73%
14:00 +26°C° 0.3 mm 5 mps 740 mmHg 71%
15:00 +26°C° 0.3 mm 5 mps 740 mmHg 69%
16:00 +27°C° 0.3 mm 6 mps 739 mmHg 67%
17:00 +25°C° 0.2 mm 5 mps 740 mmHg 76%
18:00 +22°C° 0.2 mm 4 mps 740 mmHg 84%
19:00 +21°C° 0.2 mm 3 mps 740 mmHg 92%
20:00 +20°C° 0.1 mm 2 mps 740 mmHg 93%
21:00 +20°C° 0.1 mm 2 mps 741 mmHg 95%
22:00 +19°C° 0.1 mm 2 mps 741 mmHg 96%
23:00 +19°C° 0.4 mm 2 mps 741 mmHg 97%

7 August, Saturday

Time Temperature Precipitation Wind Pressure Humidity
00:00 +19°C° 0.4 mm 2 mps 740 mmHg 97%
01:00 +19°C° 0.4 mm 2 mps 740 mmHg 98%
02:00 +19°C° 0.3 mm 2 mps 740 mmHg 98%
03:00 +20°C° 0.3 mm 1 mps 739 mmHg 98%
04:00 +20°C° 0.3 mm 1 mps 739 mmHg 97%
05:00 +20°C° 0.1 mm 1 mps 739 mmHg 97%
06:00 +20°C° 0.1 mm 1 mps 739 mmHg 97%
07:00 +20°C° 0.1 mm 1 mps 740 mmHg 97%
08:00 +20°C° 0.3 mm 2 mps 740 mmHg 92%
09:00 +22°C° 0.3 mm 4 mps 740 mmHg 87%
10:00 +23°C° 0.3 mm 5 mps 741 mmHg 82%
11:00 +24°C° 0.4 mm 6 mps 740 mmHg 78%
12:00 +26°C° 0.4 mm 6 mps 740 mmHg 73%
13:00 +27°C° 0.4 mm 6 mps 740 mmHg 69%
14:00 +27°C° 0.2 mm 6 mps 739 mmHg 67%
15:00 +27°C° 0.2 mm 6 mps 739 mmHg 66%
16:00 +27°C° 0.2 mm 6 mps 739 mmHg 64%
17:00 +25°C° 0 mm 5 mps 739 mmHg 71%
18:00 +22°C° 0 mm 4 mps 739 mmHg 79%
19:00 +21°C° 0 mm 3 mps 739 mmHg 87%
20:00 +20°C° 0 mm 2 mps 740 mmHg 89%
21:00 +20°C° 0 mm 2 mps 740 mmHg 91%
22:00 +20°C° 0 mm 1 mps 740 mmHg 94%
23:00 +19°C° 0.3 mm 2 mps 740 mmHg 94%

8 August, Sunday

Time Temperature Precipitation Wind Pressure Humidity
00:00 +20°C° 0.3 mm 2 mps 740 mmHg 95%
01:00 +20°C° 0.3 mm 2 mps 740 mmHg 95%
02:00 +20°C° 0.1 mm 2 mps 740 mmHg 93%
03:00 +20°C° 0.1 mm 3 mps 739 mmHg 91%
04:00 +20°C° 0.1 mm 3 mps 739 mmHg 88%
05:00 +20°C° 0 mm 3 mps 739 mmHg 88%
06:00 +19°C° 0 mm 2 mps 739 mmHg 88%
07:00 +19°C° 0 mm 2 mps 740 mmHg 88%
08:00 +21°C° 0 mm 3 mps 740 mmHg 80%
09:00 +23°C° 0 mm 4 mps 741 mmHg 72%
10:00 +25°C° 0 mm 5 mps 741 mmHg 64%
11:00 +26°C° 0 mm 5 mps 741 mmHg 62%
12:00 +26°C° 0 mm 5 mps 740 mmHg 61%
13:00 +27°C° 0 mm 5 mps 740 mmHg 59%
14:00 +27°C° 0 mm 5 mps 739 mmHg 60%
15:00 +26°C° 0 mm 5 mps 739 mmHg 62%
16:00 +26°C° 0 mm 5 mps 738 mmHg 63%
17:00 +25°C° 0.1 mm 4 mps 739 mmHg 72%
18:00 +22°C° 0.1 mm 3 mps 739 mmHg 81%
19:00 +20°C° 0.1 mm 2 mps 739 mmHg 89%
20:00 +20°C° 0 mm 2 mps 739 mmHg 91%
21:00 +20°C° 0 mm 1 mps 740 mmHg 93%
22:00 +20°C° 0 mm 1 mps 740 mmHg 95%
23:00 +20°C° 0 mm 1 mps 740 mmHg 95%

9 August, Monday

Time Temperature Precipitation Wind Pressure Humidity
00:00 +20°C° 0 mm 1 mps 740 mmHg 95%
01:00 +18°C° 0 mm 0 mps 740 mmHg 96%
02:00 +18°C° 0 mm 0 mps 739 mmHg 96%
03:00 +18°C° 0 mm 0 mps 739 mmHg 96%
04:00 +18°C° 0 mm 0 mps 739 mmHg 96%
05:00 +20°C° 0 mm 1 mps 739 mmHg 96%
06:00 +20°C° 0 mm 1 mps 739 mmHg 96%
07:00 +20°C° 0 mm 1 mps 739 mmHg 96%
08:00 +21°C° 0.1 mm 2 mps 740 mmHg 90%
09:00 +24°C° 0.1 mm 3 mps 740 mmHg 83%
10:00 +25°C° 0.1 mm 4 mps 741 mmHg 77%
11:00 +26°C° 0.2 mm 4 mps 740 mmHg 73%
12:00 +27°C° 0.2 mm 5 mps 740 mmHg 68%
13:00 +28°C° 0.2 mm 5 mps 740 mmHg 64%
14:00 +27°C° 0.2 mm 5 mps 739 mmHg 66%
15:00 +27°C° 0.2 mm 6 mps 739 mmHg 68%
16:00 +26°C° 0.2 mm 6 mps 738 mmHg 71%
17:00 +25°C° 0.1 mm 5 mps 739 mmHg 78%
18:00 +22°C° 0.1 mm 3 mps 739 mmHg 86%
19:00 +21°C° 0.1 mm 2 mps 739 mmHg 93%
20:00 +21°C° 0.1 mm 2 mps 739 mmHg 94%
21:00 +20°C° 0.1 mm 2 mps 740 mmHg 95%
22:00 +21°C° 0.1 mm 1 mps 740 mmHg 96%
23:00 +21°C° 0 mm 1 mps 740 mmHg 96%
Show more